This is the latest recevied weather packets stored in our database for station/object KQ4UWH. If no packets are shown the sender has not sent any weather packets the latest 10 day(s).
| Time | Temp. | Humidity | Pressure | Rain* | Wind** | Luminosity | Snow |
|---|---|---|---|---|---|---|---|
| 1777737514 | 17.22° C | 59% | 1239.7 hPa | 0 mm | - | 603 W/m² | - |
| 1777737212 | 16.67° C | 57% | 1239.7 hPa | 0 mm | - | 709 W/m² | - |
| 1777736907 | 16.11° C | 61% | 1239.7 hPa | 0 mm | - | 682 W/m² | - |
| 1777736299 | 15.56° C | 60% | 1239.7 hPa | 0 mm | - | 421 W/m² | - |
| 1777735995 | 15.56° C | 65% | 1239.7 hPa | 0 mm | - | 407 W/m² | - |
| 1777735693 | 15° C | 64% | 1239.7 hPa | 0 mm | - | 319 W/m² | - |
| 1777735390 | 15° C | 64% | 1239.7 hPa | 0 mm | - | 275 W/m² | - |
| 1777735088 | 15° C | 64% | 1239.7 hPa | 0 mm | - | 241 W/m² | - |
| 1777734784 | 15° C | 65% | 1239.7 hPa | 0 mm | - | 224 W/m² | - |
| 1777734483 | 15° C | 66% | 1239.7 hPa | 0 mm | - | 230 W/m² | - |
| 1777734179 | 15° C | 65% | 1239.7 hPa | 0 mm | - | 241 W/m² | - |
| 1777733875 | 14.44° C | 66% | 1239.7 hPa | 0 mm | - | 297 W/m² | - |
| 1777733572 | 13.89° C | 69% | 1239.7 hPa | 0 mm | - | 258 W/m² | - |
| 1777733268 | 13.33° C | 70% | 1239.7 hPa | 0 mm | - | 197 W/m² | - |
| 1777732965 | 13.89° C | 69% | 1239.7 hPa | 0 mm | - | 173 W/m² | - |
| 1777732660 | 13.89° C | 69% | 1239.7 hPa | 0 mm | - | 206 W/m² | - |
| 1777732358 | 13.33° C | 71% | 1239.7 hPa | 0 mm | - | 192 W/m² | - |
| 1777732056 | 13.33° C | 73% | 1239.7 hPa | 0 mm | - | 197 W/m² | - |
| 1777731752 | 13.33° C | 75% | 1239.7 hPa | 0 mm | - | 207 W/m² | - |
| 1777731449 | 13.33° C | 72% | 1239.7 hPa | 0 mm | - | 178 W/m² | - |
| 1777731148 | 13.33° C | 74% | 1239.7 hPa | 0 mm | - | 163 W/m² | - |
| 1777730846 | 13.33° C | 76% | 1239.7 hPa | 0 mm | - | 187 W/m² | - |
| 1777730543 | 12.78° C | 77% | 1239.7 hPa | 0 mm | - | 209 W/m² | - |
| 1777730238 | 12.78° C | 77% | 1239.7 hPa | 0 mm | - | 193 W/m² | - |
| 1777729936 | 12.22° C | 77% | 1239.7 hPa | 0 mm | - | 158 W/m² | - |
* Rain latest hour (hover to see other rain measurements)
** Current wind speed in m/s (hover to see current wind gust speed)